This is the latest recevied weather packets stored in our database for station/object PP5FMM-10. If no packets are shown the sender has not sent any weather packets the latest 10 day(s).
| Time | Temp. | Humidity | Pressure | Rain* | Wind** | Luminosity | Snow |
|---|---|---|---|---|---|---|---|
| 1778017137 | 26.67° C | 76% | 1017.7 hPa | - | - | - | - |
| 1778016241 | 26.67° C | 76% | 1017.7 hPa | - | - | - | - |
| 1778016237 | 26.67° C | 76% | 1017.7 hPa | - | - | - | - |
| 1778015341 | 26.67° C | 76% | 1017.5 hPa | - | - | - | - |
| 1778015337 | 26.67° C | 76% | 1017.5 hPa | - | - | - | - |
| 1778014441 | 26.67° C | 74% | 1017.4 hPa | - | - | - | - |
| 1778014437 | 26.67° C | 74% | 1017.4 hPa | - | - | - | - |
| 1778013541 | 27.22° C | 71% | 1017.2 hPa | - | - | - | - |
| 1778013537 | 27.22° C | 71% | 1017.2 hPa | - | - | - | - |
| 1778012641 | 27.22° C | 71% | 1017.1 hPa | - | - | - | - |
| 1778012636 | 27.22° C | 71% | 1017.1 hPa | - | - | - | - |
| 1778011740 | 27.78° C | 71% | 1016.9 hPa | - | - | - | - |
| 1778011736 | 27.78° C | 71% | 1016.9 hPa | - | - | - | - |
| 1778010840 | 27.78° C | 71% | 1016.8 hPa | - | - | - | - |
| 1778010836 | 27.78° C | 71% | 1016.8 hPa | - | - | - | - |
| 1778009940 | 27.78° C | 70% | 1016.7 hPa | - | - | - | - |
| 1778009936 | 27.78° C | 70% | 1016.7 hPa | - | - | - | - |
| 1778009040 | 27.78° C | 72% | 1016.7 hPa | - | - | - | - |
| 1778009036 | 27.78° C | 72% | 1016.7 hPa | - | - | - | - |
| 1778008140 | 27.78° C | 71% | 1016.6 hPa | - | - | - | - |
| 1778008136 | 27.78° C | 71% | 1016.6 hPa | - | - | - | - |
| 1778007240 | 27.78° C | 72% | 1016.5 hPa | - | - | - | - |
| 1778007235 | 27.78° C | 72% | 1016.5 hPa | - | - | - | - |
| 1778006339 | 27.22° C | 71% | 1016.6 hPa | - | - | - | - |
| 1778006335 | 27.22° C | 71% | 1016.6 hPa | - | - | - | - |
* Rain since midnight (hover to see other rain measurements)
** Current wind speed in m/s (hover to see current wind gust speed)